Hamilton, OH

10:07 PM EDT on July 24, 2017 (GMT -0400)
Butler County Regional

Weather History for KHAO - December, 2012

Change the Weather History Date:

Sunday, December 9, 2012

  Actual Average (KLUK) Record (KLUK)
Temperature  
Mean Temperature 52 °F -  
Max Temperature 61 °F 45 °F 64 °F (1991)
Min Temperature 44 °F 27 °F 5 °F (1977)
Degree Days  
Heating Degree Days 12    
Growing Degree Days 2 (Base 50)    
Moisture  
Dew Point 49 °F    
Average Humidity 89    
Maximum Humidity 94    
Minimum Humidity 82    
Precipitation  
Precipitation 0.44 in - - ()
Sea Level Pressure  
Sea Level Pressure 29.88 in    
Wind  
Wind Speed 5 mph (ESE)    
Max Wind Speed 9 mph    
Max Gust Speed 17 mph    
Visibility 8 miles    
Events Rain , Thunderstorm    
Averages and records for this station are not official NWS values.
T = Trace of Precipitation, MM = Missing Value Source: NWS Daily Summary

Daily Weather History Graph

Daily Weather History Graph

Search for Another Location

Airport or City:

Trip Planner

Search our weather history database for the weather conditions in past years. The results will help you decide how hot, cold, wet, or windy it might be!

Date:

Astronomy

Dec. 09, 2012 Rise Set
Actual Time 7:46 AM EST 5:14 PM EST
Civil Twilight 7:16 AM EST 5:44 PM EST
Nautical Twilight 6:43 AM EST 6:18 PM EST
Astronomical Twilight 6:10 AM EST 6:50 PM EST
Moon 3:19 AM EST (12/9) 2:20 PM EST (12/9)
Length of Visible Light 10h 28m
Length of Day
9h 27m
Waning Crescent, 19% of the Moon is Illuminated
Dec 9
Waning Crescent
Dec 13
New
Dec 20
First Quarter
Dec 28
Full
Jan 4
Last Quarter

Hourly Weather History & Observations

Time (EST) Temp. Windchill Dew Point Humidity Pressure Visibility Wind Dir Wind Speed Gust Speed Precip Events Conditions
12:13 AM 46.4 °F 45.2 °F 42.8 °F 87% 30.05 in 7.0 mi East 3.5 mph - N/A   Overcast
12:21 AM 48.2 °F - 42.8 °F 82% 30.05 in 7.0 mi East 3.5 mph - N/A   Overcast
12:53 AM 48.0 °F - 44.1 °F 86% 30.06 in 7.0 mi East 5.8 mph - N/A   Overcast
1:53 AM 46.9 °F - 43.0 °F 86% 30.05 in 10.0 mi East 8.1 mph - N/A   Overcast
2:53 AM 46.0 °F 43.1 °F 41.0 °F 83% 30.06 in 10.0 mi East 5.8 mph - N/A   Overcast
3:18 AM 46.4 °F 42.9 °F 42.8 °F 87% 30.05 in 10.0 mi East 6.9 mph - N/A   Overcast
3:28 AM 44.6 °F 39.7 °F 41.0 °F 87% 30.05 in 10.0 mi East 9.2 mph - N/A   Overcast
3:53 AM 45.0 °F 40.6 °F 41.0 °F 86% 30.05 in 10.0 mi ENE 8.1 mph - N/A   Overcast
4:53 AM 45.0 °F 41.8 °F 41.0 °F 86% 30.04 in 10.0 mi ENE 5.8 mph - N/A   Overcast
5:53 AM 45.0 °F 40.1 °F 41.0 °F 86% 30.04 in 10.0 mi ENE 9.2 mph - N/A   Overcast
6:27 AM 44.6 °F 40.7 °F 41.0 °F 87% 30.02 in 10.0 mi ENE 6.9 mph - N/A   Overcast
6:53 AM 45.0 °F 41.2 °F 41.0 °F 86% 30.03 in 10.0 mi East 6.9 mph - N/A   Overcast
7:53 AM 46.0 °F 41.4 °F 41.0 °F 83% 30.02 in 10.0 mi East 9.2 mph - N/A   Overcast
8:53 AM 46.0 °F 41.9 °F 42.1 °F 86% 30.00 in 9.0 mi East 8.1 mph - N/A   Overcast
9:53 AM 46.9 °F - 43.0 °F 86% 29.99 in 9.0 mi ESE 8.1 mph - N/A   Overcast
10:29 AM 46.4 °F 43.5 °F 44.6 °F 93% 29.97 in 8.0 mi ESE 5.8 mph - N/A   Overcast
10:53 AM 48.0 °F - 45.0 °F 89% 29.97 in 7.0 mi ESE 5.8 mph - N/A   Overcast
11:53 AM 48.9 °F - 46.0 °F 90% 29.93 in 6.0 mi ESE 8.1 mph - 0.00 in Rain Light Rain
12:53 PM 51.1 °F - 48.0 °F 89% 29.88 in 7.0 mi ESE 4.6 mph - 0.00 in   Overcast
1:53 PM 53.1 °F - 48.9 °F 86% 29.85 in 9.0 mi Calm Calm - N/A   Overcast
2:20 PM 55.4 °F - 51.8 °F 88% 29.84 in 10.0 mi Variable 3.5 mph - N/A   Overcast
2:53 PM 57.0 °F - 53.1 °F 87% 29.84 in 10.0 mi SE 3.5 mph - N/A   Overcast
3:31 PM 57.2 °F - 53.6 °F 88% 29.82 in 10.0 mi SE 5.8 mph - N/A   Overcast
3:53 PM 57.9 °F - 54.0 °F 87% 29.83 in 10.0 mi SSE 3.5 mph - N/A   Overcast
4:20 PM 57.2 °F - 55.4 °F 94% 29.82 in 10.0 mi Calm Calm - 0.00 in Rain Light Rain
4:53 PM 59.0 °F - 55.0 °F 87% 29.82 in 10.0 mi Variable 3.5 mph - 0.00 in   Overcast
5:53 PM 57.9 °F - 55.9 °F 93% 29.80 in 8.0 mi Calm Calm - 0.01 in Rain Light Rain
6:40 PM 59.0 °F - 57.2 °F 94% 29.78 in 10.0 mi SSE 4.6 mph - 0.00 in   Overcast
6:53 PM 59.0 °F - 57.0 °F 93% 29.78 in 10.0 mi Variable 4.6 mph - 0.00 in Rain Light Rain
7:14 PM 60.8 °F - 57.2 °F 88% 29.77 in 10.0 mi Variable 4.6 mph - 0.00 in   Overcast
7:51 PM 60.8 °F - 57.2 °F 88% 29.76 in 10.0 mi Variable 5.8 mph - 0.00 in   Overcast
7:53 PM 61.0 °F - 57.0 °F 87% 29.76 in 10.0 mi South 4.6 mph - 0.00 in   Overcast
8:31 PM 60.8 °F - 57.2 °F 88% 29.76 in 6.0 mi SSW 8.1 mph - 0.02 in Rain , Thunderstorm Rain
8:44 PM 60.8 °F - 57.2 °F 88% 29.74 in 4.0 mi SW 6.9 mph 17.3 mph 0.06 in Rain , Thunderstorm Thunderstorms and Rain
8:53 PM 59.0 °F - 55.9 °F 90% 29.74 in 4.0 mi SSW 8.1 mph - 0.08 in Rain Rain
9:04 PM 57.2 °F - 55.4 °F 94% 29.72 in 8.0 mi Calm Calm - 0.01 in Rain , Thunderstorm Light Rain
9:19 PM 57.2 °F - 55.4 °F 94% 29.73 in 9.0 mi SW 5.8 mph - 0.01 in Rain Light Rain
9:53 PM 57.0 °F - 54.0 °F 89% 29.74 in 4.0 mi SSW 4.6 mph - 0.09 in Rain Rain
10:53 PM 55.9 °F - 54.0 °F 93% 29.74 in 3.0 mi Variable 3.5 mph - 0.06 in Rain Rain
11:07 PM 55.4 °F - 53.6 °F 94% 29.72 in 2.5 mi Variable 5.8 mph - 0.07 in Rain Heavy Rain
11:17 PM 55.4 °F - 53.6 °F 94% 29.72 in 4.0 mi South 5.8 mph - 0.10 in Rain Rain
11:53 PM 55.9 °F - 54.0 °F 93% 29.71 in 5.0 mi South 6.9 mph - 0.20 in Rain Rain